Regional Weather Roundup
Issued by NWS

Home | Current Version | Previous Version | Text Only | Print | Product List | Glossary Off
Versions: 1 2 3 4 5 6 7 8 9 10 11 12 13 14 15 16 17 18 19 20 21 22 23 24 25 26 27 28 29 30 31 32 33 34 35 36 37 38 39 40 41 42 43 44 45 46 47 48 49 50

000
ASUS43 KDMX 151506
RWRIA

WEATHER ROUNDUP FOR IOWA
NATIONAL WEATHER SERVICE DES MOINES IA
900 AM CST SUN JAN 15 2017

NOTE: "FAIR" INDICATES FEW OR NO CLOUDS BELOW 12,000 FEET WITH NO
SIGNIFICANT WEATHER AND/OR OBSTRUCTIONS TO VISIBILITY.

* - THESE STATIONS ARE NOT NWS STATIONS...THUS NOT UNDER NWS
QUALITY CONTROL.  THEY ALSO DO NOT REPORT WEATHER SUCH
AS PRECIPITATION OR FOG.

IAZ001>003-012>014-020>022-031>034-043>046-151600-
   NORTHWEST IOWA

CITY           SKY/WX    TMP DP  RH WIND       PRES   REMARKS
CARROLL *      CLOUDY    25  23  93 S7        30.34F WCI  17
CHEROKEE *     CLOUDY    15  13  94 CALM      30.33S
DENISON *      CLOUDY    25  21  86 CALM      30.31F
LE MARS *      CLOUDY    14  10  85 S3        30.33F
ORANGE CITY *  CLOUDY    19  16  86 S5        30.30S WCI  13
SHELDON *      CLOUDY    16  16 100 SE6       30.30S WCI   7
SIOUX CITY     CLOUDY    20  15  81 E6        30.34R WCI  12
SPENCER        CLOUDY     9   5  84 S3        30.32F FOG
STORM LAKE *   CLOUDY    21  16  79 S8        30.32S WCI  12
$$

IAZ055>058-069>071-079>083-090>094-151600-
   SOUTHWEST IOWA

CITY           SKY/WX    TMP DP  RH WIND       PRES   REMARKS
ATLANTIC *     CLOUDY    30  19  64 CALM      30.36R
AUDUBON *      CLOUDY    25  21  86 CALM      30.34F
CLARINDA *     CLOUDY    32  23  69 CALM      30.37S
COUNCIL BLFS * CLOUDY    28  18  64 SE5       30.33F WCI  23
CRESTON *      PTSUNNY   28  21  74 SE9       30.35F WCI  20
HARLAN  *      CLOUDY    28  19  69 CALM      30.38R
LAMONI         MIX PCPN  28  24  85 SE3       30.35F
RED OAK *      CLOUDY    32  21  64 MISG      30.36R
SHENANDOAH *   PTSUNNY   30  27  86 SE7       30.36S WCI  23
$$

IAZ047>049-059>061-072>074-084-151600-
   CENTRAL IOWA

CITY           SKY/WX    TMP DP  RH WIND       PRES   REMARKS
AMES           CLOUDY    23  20  88 S3        30.37F
ANKENY *       CLOUDY    27  18  69 SE6       30.38F WCI  20
BOONE *        CLOUDY    25  19  80 SE5       30.34F WCI  19
CHARITON *     CLOUDY    28  21  74 SE8       30.35F WCI  20
DES MOINES     CLOUDY    28  17  63 SE5       30.37F WCI  23
GRINNELL*      CLOUDY    26  19  75 SE5       30.38F WCI  20
KNOXVILLE *    CLOUDY    27  18  69 SE5       30.36F WCI  21
MARSHALLTOWN   CLOUDY    21  18  88 CALM      30.38R
NEWTON *       PTSUNNY   27  18  69 SE6       30.37S WCI  20
PELLA *        CLOUDY    27  19  73 SE3       30.39F
PERRY *          N/A     25  22  90 CALM      30.36S
$$

IAZ004>006-015-016-023>025-035-036-151600-
   NORTH CENTRAL IOWA

CITY           SKY/WX    TMP DP  RH WIND       PRES   REMARKS
ALGONA *       CLOUDY    16  14  93 S8        30.33S WCI   5
CLARION *      CLOUDY    19  18  93 S6        30.36R WCI  11
ESTHERVILLE    CLOUDY    11  11 100 S6        30.32R FOG     WCI   1
FORT DODGE *   CLOUDY    16  10  79 CALM      30.36S
MASON CITY     CLOUDY    12   9  87 S5        30.37S FOG     WCI   4
FOREST CITY *    N/A     12   9  85 CALM      30.36R
WEBSTER CITY * CLOUDY    18  14  86 S7        30.34S WCI   8
IOWA FALLS *     N/A     21  18  86 CALM      30.37S
$$

IAZ007>011-017>019-026>030-037>042-050>054-066-151600-
   NORTHEAST IOWA

CITY           SKY/WX    TMP DP  RH WIND       PRES   REMARKS
CEDAR RAPIDS   CLOUDY    23  16  74 CALM      30.39S
CHARLES CITY * CLOUDY    10   9  92 SE6       30.39R WCI   1
CLINTON *      CLOUDY    24  17  74 SE3       30.43R
DECORAH *      CLOUDY    10   9  92 CALM      30.38R
DUBUQUE        CLOUDY    20  13  74 CALM      30.40R
MONTICELLO *   MOSUNNY   23  16  74 CALM      30.41R
OELWEIN *      CLOUDY    14  12  92 SE5       30.40R WCI   6
WATERLOO       CLOUDY    18  13  80 NE3       30.39S
$$

IAZ064-065-067-068-078-151600-
   EAST CENTRAL IOWA

CITY           SKY/WX    TMP DP  RH WIND       PRES   REMARKS
DAVENPORT      CLOUDY    25  14  63 SE5       30.42S WCI  19
IOWA CITY      CLOUDY    26  17  68 SE3       30.43S
MUSCATINE *    CLOUDY    27  19  74 CALM      30.43F
QUAD CITIES    CLOUDY    26  16  65 CALM      30.42S
$$

IAZ062-063-075>077-085>089-095>099-151600-
   SOUTHEAST IOWA

CITY           SKY/WX    TMP DP  RH WIND       PRES   REMARKS
BURLINGTON     CLOUDY    28  18  66 E5        30.41F WCI  23
FAIRFIELD *    CLOUDY    28  16  59 SE8       30.38F WCI  20
FORT MADISON * CLOUDY    28  25  86 E5        30.41F WCI  23
KEOKUK *       CLOUDY    30  25  80 E6        30.40S WCI  24
OSKALOOSA *    CLOUDY    27  20  74 SE6       30.39F WCI  20
CENTERVILLE *  CLOUDY    28  23  80 CALM      30.39F
OTTUMWA        CLOUDY    28  18  66 SE6       30.37F WCI  22
WASHINGTON *   CLOUDY    27  18  69 SE5       30.42S WCI  21
$$

ABBREVIATIONS USED IN REMARKS
   TC - TEMPERATURES IN CELSIUS
  WCI - WIND CHILL INDEX
   HX - HEAT INDEX
  VSB - VISIBILITY
$$





USA.gov is the U.S. government's official web portal to all federal, state and local government web resources and services.